Fairbanks Ft. Wainwright, AK

6:52 AM AKDT on June 29, 2017 (GMT -0800)
Ladd Army Air Field

Weather History for PAFB - May, 2014

Change the Weather History Date:

Sunday, May 4, 2014

  Actual Average Record
Temperature  
Mean Temperature 53 °F -  
Max Temperature 64 °F 49 °F 68 °F (2004)
Min Temperature 42 °F 31 °F 21 °F (2001)
Degree Days  
Heating Degree Days 12    
Growing Degree Days 3 (Base 50)    
Moisture  
Dew Point 35 °F    
Average Humidity 57    
Maximum Humidity 77    
Minimum Humidity 31    
Precipitation  
Precipitation 0.00 in - - ()
Sea Level Pressure  
Sea Level Pressure 29.88 in    
Wind  
Wind Speed 4 mph (WNW)    
Max Wind Speed 16 mph    
Max Gust Speed 24 mph    
Visibility 10 miles    
Events Rain    
Averages and records for this station are not official NWS values.
T = Trace of Precipitation, MM = Missing Value Source: NWS Daily Summary

Daily Weather History Graph

Daily Weather History Graph

Search for Another Location

Airport or City:

Trip Planner

Search our weather history database for the weather conditions in past years. The results will help you decide how hot, cold, wet, or windy it might be!

Date:

Astronomy

May. 04, 2014 Rise Set
Actual Time 5:05 AM AKDT 10:31 PM AKDT
Civil Twilight 3:46 AM AKDT 11:52 PM AKDT
Nautical Twilight Sun does not set Sun does not set
Astronomical Twilight Sun does not set Sun does not set
Moon 9:32 AM AKDT (5/4) 2:50 AM AKDT (5/4)
Length of Visible Light 20h 05m
Length of Day
17h 25m
Waxing Crescent, 29% of the Moon is Illuminated
May 4
Waxing Crescent
May 6
First Quarter
May 14
Full
May 21
Last Quarter
May 28
New

Hourly Weather History & Observations

Time (AKDT) Temp. Windchill Dew Point Humidity Pressure Visibility Wind Dir Wind Speed Gust Speed Precip Events Conditions
12:56 AM 46.9 °F - 35.1 °F 63% 29.86 in 10.0 mi Calm Calm - N/A   Clear
1:56 AM 44.1 °F - 35.1 °F 71% 29.86 in 10.0 mi Calm Calm - N/A   Clear
2:56 AM 42.1 °F - 34.0 °F 73% 29.86 in 10.0 mi Calm Calm - N/A   Partly Cloudy
3:56 AM 42.1 °F - 35.1 °F 76% 29.86 in 10.0 mi Calm Calm - N/A   Partly Cloudy
4:56 AM 42.1 °F - 34.0 °F 73% 29.86 in 10.0 mi Calm Calm - N/A   Clear
5:56 AM 44.1 °F 41.5 °F 34.0 °F 68% 29.87 in 10.0 mi ENE 4.6 mph - N/A   Mostly Cloudy
6:56 AM 44.1 °F 41.5 °F 35.1 °F 71% 29.87 in 10.0 mi ENE 4.6 mph - N/A   Overcast
7:56 AM 46.9 °F - 35.1 °F 63% 29.88 in 10.0 mi East 3.5 mph - N/A   Overcast
8:56 AM 48.9 °F - 36.0 °F 61% 29.88 in 10.0 mi Calm Calm - N/A   Overcast
9:56 AM 51.1 °F - 36.0 °F 56% 29.89 in 10.0 mi Calm Calm - N/A   Overcast
10:56 AM 55.9 °F - 36.0 °F 47% 29.88 in 10.0 mi Calm Calm - N/A   Scattered Clouds
11:56 AM 60.1 °F - 35.1 °F 39% 29.87 in 10.0 mi Calm Calm - N/A   Partly Cloudy
12:56 PM 62.1 °F - 34.0 °F 35% 29.86 in 10.0 mi West 4.6 mph - N/A   Overcast
1:56 PM 63.0 °F - 33.1 °F 33% 29.85 in 10.0 mi West 5.8 mph - N/A   Overcast
2:56 PM 64.9 °F - 33.1 °F 31% 29.84 in 10.0 mi WNW 15.0 mph - N/A   Mostly Cloudy
3:56 PM 62.1 °F - 32.0 °F 32% 29.85 in 10.0 mi WNW 15.0 mph - N/A   Overcast
4:56 PM 59.0 °F - 34.0 °F 39% 29.87 in 10.0 mi NW 16.1 mph 21.9 mph N/A   Overcast
5:56 PM 55.0 °F - 36.0 °F 49% 29.88 in 10.0 mi NNW 16.1 mph 24.2 mph N/A   Overcast
6:56 PM 53.1 °F - 35.1 °F 50% 29.90 in 10.0 mi NW 13.8 mph - N/A   Overcast
7:56 PM 50.0 °F - 37.0 °F 61% 29.91 in 10.0 mi WNW 12.7 mph - N/A   Overcast
8:56 PM 48.9 °F - 37.9 °F 66% 29.93 in 10.0 mi NW 8.1 mph - N/A   Overcast
9:56 PM 46.9 °F - 39.9 °F 77% 29.94 in 10.0 mi West 5.8 mph - 0.00 in   Overcast
10:56 PM 46.9 °F - 37.0 °F 68% 29.94 in 10.0 mi West 9.2 mph - 0.00 in Rain Light Rain
11:56 PM 45.0 °F 40.1 °F 37.0 °F 74% 29.96 in 10.0 mi West 9.2 mph - 0.00 in Rain Light Rain